CAPE
0 0 0 0 0 0 0 0 0 0 3 0 0 0 143 576 603 1011 22 506 861 1012 1322 1275 1113 1076 904 394 222 202 2 0 0 2 5 9 53 126 179 346 198 10 0 0 0 0 0 0 0
0 0 0 0 0 0 0 0 0 0 2 0 0 0 14 772 698 648 72 713 667 1229 1140 1295 1040 969 1090 810 479 409 81 0 0 0 0 26 103 123 139 134 17 0 0 0 0 0 0 0 0
0 0 0 0 0 0 0 16 76 29 0 0 0 0 26 519 702 581 74 860 619 1002 1215 1474 1114 902 983 1029 776 556 298 48 14 24 32 50 65 69 54 18 0 0 0 0 0 0 0 0 0
0 0 0 0 0 0 0 0 40 0 0 0 0 0 0 53 573 433 95 771 522 519 988 1154 1013 1079 1044 1143 1075 804 567 218 66 83 90 36 57 58 0 0 0 0 0 0 0 0 0 0 0
0 0 0 0 0 0 0 0 24 4 0 0 0 0 86 471 462 149 73 510 393 289 1448 1044 826 907 1053 1039 1159 1096 801 379 174 170 224 136 63 13 0 0 0 0 0 0 0 0 0 0 0
0 0 0 0 0 0 0 0 0 0 0 1 0 13 361 521 29 11 103 315 373 453 1351 870 779 831 952 1128 1292 1178 993 605 419 413 489 240 47 0 0 0 0 0 0 0 0 0 0 0 0
0 0 0 0 0 0 0 0 2 0 0 0 0 5 311 460 105 17 78 180 380 1102 1188 711 759 894 927 1015 1228 1345 948 762 559 459 393 92 20 0 0 0 0 0 0 0 0 0 0 0 0
0 0 0 0 0 0 0 0 0 0 0 0 0 7 177 523 475 473 142 34 335 628 1274 592 603 841 928 1085 1097 1183 961 839 673 567 372 69 0 0 0 0 0 0 0 0 0 0 0 0 0
0 0 0 0 0 0 0 0 0 0 0 0 0 1 133 210 441 435 397 125 191 370 1122 413 441 494 420 759 1121 1082 930 815 689 545 353 66 11 0 0 0 0 0 0 0 0 0 0 0 0
0 0 0 0 0 0 0 0 0 0 0 0 0 0 0 44 143 384 495 239 150 278 1008 551 345 302 56 24 733 907 1003 917 706 522 323 61 18 23 10 0 3 10 0 0 0 0 0 0 0
0 0 0 0 0 0 0 0 0 0 0 0 0 0 0 0 26 94 267 363 207 207 481 721 427 202 24 0 233 164 604 592 460 272 384 67 14 50 4 109 26 58 37 0 0 0 0 12 11
0 0 0 0 0 0 0 0 0 0 0 0 0 0 0 0 0 0 0 21 167 236 333 748 728 346 117 26 137 35 150 222 289 246 301 137 72 53 89 315 176 182 130 1 86 140 308 239 395
0 0 0 0 0 0 0 0 0 0 0 0 0 0 0 0 0 0 0 0 59 243 306 584 814 650 280 571 306 55 54 108 137 114 195 360 51 242 337 221 301 367 255 283 324 249 139 355 776
0 0 0 0 0 0 0 0 0 0 0 0 0 0 0 0 0 0 0 0 0 289 335 260 843 1357 861 525 1292 476 98 228 178 240 294 246 490 236 528 392 381 582 430 463 344 253 218 305 494
0 0 0 0 0 0 0 0 0 0 0 0 0 0 0 0 0 0 0 0 0 123 211 0 1346 1622 1552 1169 1253 1983 1026 322 467 566 598 569 720 789 733 664 560 498 459 298 291 264 237 325 271
0 0 0 0 0 0 0 0 0 0 0 0 0 0 0 0 0 0 0 0 0 13 462 811 1249 2186 2062 2193 1359 1830 1627 1102 1037 742 1130 1222 895 1062 1276 1016 804 779 510 462 339 270 213 147 147
0 0 0 0 0 0 0 0 0 0 0 0 0 0 0 0 0 0 0 0 0 0 0 803 1082 1552 2460 2485 2581 2226 2027 2042 1814 1353 1152 1943 1687 1333 1739 999 1157 985 819 649 570 527 365 329 326
0 0 0 0 0 0 0 0 0 0 0 0 0 0 0 0 0 0 0 0 0 0 0 96 1892 1806 2189 2958 2883 2893 2683 2201 2164 2084 1632 1672 2361 2228 1579 2116 1377 1560 1136 959 931 762 576 407 314
0 0 0 0 0 0 0 0 0 0 0 0 0 0 0 0 0 0 0 0 0 0 0 1 613 2090 2483 2638 3042 2769 2856 2759 2398 2141 2302 2029 2749 2571 2304 1813 2678 1791 1566 1397 1070 743 723 624 582
0 0 0 0 0 0 0 0 0 0 0 0 0 0 0 0 0 0 0 0 0 0 0 0 81 749 1759 2754 2657 2783 2815 2493 2740 2562 2235 2410 2481 2743 2678 2402 2376 2379 1672 1459 1007 1511 1146 1230 1477
0 0 0 0 0 0 0 0 0 0 0 0 0 0 0 0 0 0 0 0 0 0 0 0 0 68 469 1501 2300 2437 2579 2838 2521 2542 2670 2509 2537 2686 2735 2677 2791 2399 1661 1451 1531 2151 1816 1604 1966
0 0 0 0 0 0 0 0 0 0 0 0 0 0 0 0 0 0 0 0 0 0 0 0 0 0 8 341 639 1341 2061 2187 2370 2562 2717 2744 2653 2385 2641 2518 2285 2318 1727 1872 2151 1921 2326 2318 1976
0 0 0 0 0 0 0 0 0 0 0 0 0 0 0 0 0 0 0 0 0 0 0 0 0 0 0 6 246 514 1007 1326 2055 2590 2295 2837 2774 2597 2283 2340 2165 2097 1795 2135 1912 2576 2740 2874 2040
0 0 0 0 0 0 0 0 0 0 0 0 0 0 0 0 0 0 0 0 0 0 0 0 0 0 0 0 119 160 497 520 1367 1731 1937 2191 1778 2650 2208 2007 1857 1841 2064 1946 2407 2328 2870 2525 2266
0 0 0 0 0 0 0 0 0 0 0 0 0 0 0 0 0 0 0 0 0 0 0 0 0 0 0 0 7 78 233 582 796 739 1429 1450 1822 2266 2695 2267 1937 1547 1808 2351 2026 1927 2532 2477 2093
0 0 0 0 0 1 1 0 0 0 0 0 0 0 0 0 0 0 0 0 0 0 0 0 0 0 0 0 0 61 196 301 302 742 1034 1047 1130 1555 1633 1595 628 89 152 511 1269 1522 2127 2282 2476
0 0 0 0 0 0 0 0 0 0 0 0 0 0 0 0 0 0 0 0 0 0 0 0 0 0 3 18 2 13 34 188 310 493 641 819 1323 1474 1189 1658 1017 61 0 0 0 797 1464 2297 2416
0 0 0 0 0 0 0 0 0 23 0 0 0 0 0 3 0 0 0 0 0 0 0 0 4 14 27 27 34 38 61 31 334 238 756 997 1385 1274 1329 1835 1063 111 0 0 349 727 147 1871 2556
9 0 0 0 0 5 9 11 1 1 7 0 0 0 0 0 0 0 0 0 0 0 0 13 19 9 10 28 37 75 167 67 68 120 130 147 356 875 855 1323 1339 472 252 38 0 2 1 1296 2205
17 24 23 4 0 1 4 0 0 0 0 0 0 2 0 0 0 0 0 0 0 0 0 2 0 0 0 1 10 11 74 79 80 130 79 86 89 94 218 974 1071 576 100 0 0 0 1 794 1401
CIN
0 0 0 0 0 0 0 0 0 0 -2 0 0 0 -10 -38 -42 -34 -227 -255 -441 -489 -469 -410 -386 -353 -347 -427 -438 -408 -71 0 0 -439 -502 -472 -326 -218 -176 -103 -149 -303 0 0 0 0 0 0 0
0 0 0 0 0 0 0 0 0 0 -9 0 0 0 -39 -37 -84 -121 -219 -277 -423 -464 -481 -419 -413 -381 -318 -332 -367 -359 -455 0 0 0 0 -383 -267 -225 -196 -197 -241 0 0 0 0 0 0 0 0
0 0 0 0 0 0 0 -15 -25 -6 0 0 0 0 -7 -37 -74 -115 -231 -270 -417 -450 -420 -405 -424 -394 -337 -294 -303 -320 -356 -444 -447 -418 -358 -310 -274 -254 -257 -239 0 0 0 0 0 0 0 0 0
0 0 0 0 0 0 0 0 -6 0 0 0 0 0 0 -107 -52 -198 -239 -264 -403 -451 -412 -443 -429 -378 -337 -281 -256 -265 -280 -353 -384 -344 -310 -311 -273 -255 -8 0 0 0 0 0 0 0 0 0 0
0 0 0 0 0 0 0 0 -34 -18 -3 0 0 0 -85 -82 -121 -218 -225 -233 -319 -407 -339 -418 -431 -378 -329 -299 -246 -222 -231 -302 -344 -309 -260 -265 -276 -251 0 0 0 0 0 0 0 0 0 0 0
0 0 0 0 0 0 0 -3 0 0 -3 -1 0 -3 -31 -59 -206 -208 -191 -206 -220 -346 -320 -428 -434 -387 -332 -273 -222 -213 -212 -264 -276 -245 -188 -236 -305 0 0 0 0 0 0 0 0 0 0 0 0
0 0 0 0 0 0 0 0 -4 0 -4 -0 0 -1 -30 -38 -92 -114 -200 -191 -187 -251 -296 -434 -408 -352 -318 -275 -217 -166 -218 -227 -256 -254 -231 -322 -373 0 0 0 0 0 0 0 0 0 0 0 0
0 0 0 0 0 0 0 -0 0 0 0 0 0 -1 -17 -9 -52 -96 -129 -155 -145 -194 -263 -410 -401 -349 -320 -261 -234 -186 -187 -189 -205 -216 -253 -356 -11 0 0 0 0 0 0 0 0 0 0 0 0
0 0 0 0 0 0 0 0 0 0 0 0 0 -1 -21 -34 -21 -54 -51 -92 -105 -157 -234 -357 -387 -391 -391 -315 -218 -205 -203 -192 -205 -221 -255 -373 -441 0 0 0 0 0 0 0 0 0 0 0 0
0 0 0 0 0 0 0 0 0 0 0 0 0 0 0 -11 -40 -17 -10 -46 -79 -110 -140 -270 -331 -371 -437 -469 -304 -241 -188 -197 -227 -255 -304 -398 -423 -413 -421 0 -190 -448 0 0 0 0 0 0 0
0 0 0 0 0 0 0 0 0 0 0 0 0 0 0 0 -17 -13 -4 -3 -12 -46 -51 -184 -251 -349 -411 -5 -388 -417 -270 -250 -269 -296 -275 -401 -432 -308 -332 -304 -420 -370 -410 0 0 0 0 -324 -360
0 0 0 0 0 0 0 0 0 0 0 0 0 0 0 0 0 0 0 -65 -16 -17 -60 -95 -167 -283 -309 -352 -388 -476 -360 -315 -303 -288 -252 -328 -343 -302 -254 -211 -241 -256 -295 -45 -271 -239 -198 -200 -117
0 0 0 0 0 0 0 0 0 0 0 0 0 0 0 0 0 0 0 0 -26 -7 -8 -35 -120 -168 -231 -148 -275 -399 -391 -349 -323 -339 -292 -205 -345 -185 -151 -182 -147 -177 -203 -179 -163 -152 -157 -120 -90
0 0 0 0 0 0 0 0 0 0 0 0 0 0 0 0 0 0 0 0 -7 -35 -65 -48 -88 -99 -149 -151 -60 -173 -312 -247 -254 -241 -235 -248 -179 -184 -147 -140 -130 -75 -106 -129 -144 -153 -151 -154 -125
0 0 0 0 0 0 0 0 0 0 0 0 0 0 0 0 0 0 0 0 0 -56 -79 -6 -67 -89 -112 -113 -78 -35 -104 -165 -169 -142 -180 -237 -167 -144 -144 -151 -144 -125 -126 -129 -109 -118 -144 -162 -167
0 0 0 0 0 0 0 0 0 0 0 0 0 0 0 0 0 0 0 0 0 -30 -50 -25 -19 -29 -105 -109 -100 -71 -62 -81 -85 -141 -82 -150 -199 -144 -111 -113 -166 -159 -150 -153 -163 -157 -161 -185 -192
0 0 0 0 0 0 0 0 0 0 0 0 0 0 0 0 0 0 0 0 0 0 0 -64 -42 -27 -57 -83 -72 -63 -54 -33 -56 -67 -81 -32 -125 -130 -83 -133 -139 -147 -127 -128 -155 -151 -169 -177 -159
0 0 0 0 0 0 0 0 0 0 0 0 0 0 0 0 0 0 0 0 0 0 0 -100 -18 -33 -11 -25 -25 -3 -26 -23 -39 -30 -32 -31 -37 -89 -97 -44 -78 -40 -77 -93 -102 -109 -106 -103 -106
0 0 0 0 0 0 0 0 0 0 0 0 0 0 0 0 0 0 0 0 0 0 0 -0 -70 -13 -7 -6 -8 -8 -3 -12 -26 -33 -17 -11 -17 -53 -66 -67 -3 -37 -37 -65 -77 -104 -76 -87 -76
0 0 0 0 0 0 0 0 0 0 0 0 0 0 0 0 0 0 0 0 0 0 0 0 -146 -77 -22 -5 -4 -1 -2 -6 -1 -6 -12 -2 -3 -21 -37 -37 -11 -11 -39 -53 -76 -28 -38 -47 -19
0 0 0 0 0 0 0 0 0 0 0 0 0 0 0 0 0 0 0 0 0 0 0 0 0 -146 -105 -33 -4 -3 -4 -4 -3 -5 -4 -8 -5 -4 -8 -15 -2 -20 -48 -71 -71 -21 -23 -39 -9
0 0 0 0 0 0 0 0 0 0 0 0 0 0 0 0 0 0 0 0 0 0 0 0 0 0 -25 -123 -94 -26 -3 -4 -5 -6 -4 -7 -23 -31 -12 -40 -28 -25 -47 -8 -10 -36 -15 -15 -5
0 0 0 0 0 0 0 0 0 0 0 0 0 0 0 0 0 0 0 0 0 0 0 0 0 0 0 -20 -123 -110 -41 -19 -2 -1 -4 -6 -17 -26 -42 -51 -89 -43 -56 -6 -15 -14 -13 -7 -44
0 0 0 0 0 0 0 0 0 0 0 0 0 0 0 0 0 0 0 0 0 0 0 0 0 0 0 0 -116 -122 -67 -76 -25 -21 -29 -15 -13 -22 -30 -46 -62 -33 -10 -32 -10 -9 -9 -25 -56
0 0 0 0 0 0 0 0 0 0 0 0 0 0 0 0 0 0 0 0 0 0 0 0 0 0 0 0 -34 -84 -66 -33 -39 -55 -37 -41 -33 -17 -24 -36 -53 -35 -19 -3 -5 -5 -9 -51 -90
0 0 0 0 0 -5 -22 0 0 0 0 0 0 0 0 0 0 0 0 0 0 0 0 0 0 0 0 0 0 -56 -61 -47 -59 -12 -16 -35 -48 -35 -44 -48 -79 -186 -6 -151 -12 -1 -7 -13 -47
0 0 0 0 0 0 0 0 0 0 0 0 0 0 0 0 0 0 0 0 0 0 0 0 0 0 -7 -2 -0 -3 -38 -19 -25 -25 -28 -27 -16 -20 -58 -43 -62 -173 0 0 0 -8 -2 -15 -33
0 0 0 0 0 0 0 0 0 -32 -2 0 0 0 -9 -14 0 0 0 0 0 0 0 0 -5 -10 -8 -6 -4 -4 -7 -14 -8 -38 -13 -9 -2 -11 -34 -29 -57 -153 0 0 -120 -6 -137 -5 -4
-5 -4 0 0 -3 -1 -1 -6 -21 -13 -40 0 0 0 0 0 0 0 0 0 0 0 0 -7 -12 -25 -25 -27 -55 -9 -13 -27 -47 -50 -59 -79 -59 -17 -49 -30 -26 -63 -45 -54 0 -40 -4 -1 -4
-11 -2 -3 -22 0 -1 -9 0 -3 0 0 0 0 -2 0 0 0 0 0 0 0 0 0 -15 -1 0 0 -4 -39 -45 -8 -17 -32 -23 -54 -64 -79 -97 -83 -14 -9 -36 -98 0 0 0 -3 -3 -3
Wind_Speed
31 31 30 30 25 25 39 37 36 34 26 18 18 17 18 15 15 10 8 11 16 18 20 21 21 21 22 23 22 22 22 22 22 22 22 23 23 23 22 22 22 22 22 22 23 23 23 23 23
30 30 30 28 31 35 36 34 33 27 12 13 16 21 22 13 9 8 8 12 14 16 18 18 18 19 20 20 19 20 21 21 20 20 20 21 21 20 20 20 20 20 20 20 21 21 22 22 22
31 30 29 26 34 41 37 25 29 15 10 10 16 18 18 12 6 6 8 11 12 13 14 15 16 17 17 17 16 17 18 19 19 19 19 19 19 18 17 17 17 17 18 19 19 19 20 20 20
27 30 29 38 38 38 44 34 28 21 20 17 19 15 12 14 14 4 6 8 9 10 11 13 13 14 14 14 14 15 15 16 16 16 15 16 16 16 16 16 16 16 16 17 17 18 18 19 19
31 30 37 36 39 41 41 38 32 21 14 11 15 11 10 10 7 3 3 5 6 8 8 10 11 11 12 13 13 14 15 16 15 14 14 14 14 14 15 15 15 15 15 15 15 16 16 17 18
35 31 38 40 39 37 36 26 18 27 19 16 10 13 8 6 4 1 2 3 6 6 7 8 9 9 9 10 11 12 13 14 13 12 11 11 11 12 13 13 13 13 13 13 14 14 15 15 16
39 37 41 41 38 38 33 21 23 27 27 22 16 18 8 4 3 1 1 1 4 5 4 5 6 6 7 8 9 10 12 12 11 11 10 10 9 9 9 10 10 10 10 11 12 12 13 13 13
37 41 44 42 41 39 34 26 30 26 25 17 17 16 7 4 4 3 1 1 3 3 3 4 5 5 5 5 7 8 9 8 7 7 8 8 8 8 7 7 8 8 8 8 9 10 10 11 11
34 44 48 46 40 38 24 26 29 24 21 17 20 10 7 5 5 4 2 1 1 1 1 3 5 5 5 4 5 6 7 7 6 5 6 6 5 5 4 5 5 5 5 6 7 8 8 9 8
37 44 48 43 42 40 38 28 26 30 30 26 19 12 13 9 7 6 5 6 4 4 3 3 5 5 5 4 5 5 4 5 5 4 3 2 1 2 2 3 3 3 3 4 5 6 7 8 8
36 46 38 45 42 41 37 26 25 30 26 27 27 19 17 17 15 14 6 5 4 4 5 5 4 5 6 5 5 5 5 5 5 5 4 4 4 3 2 2 3 5 6 7 4 6 6 6 8
37 37 41 41 40 38 34 32 22 32 27 24 22 23 18 16 18 20 20 19 4 6 7 6 5 6 6 5 5 6 7 7 7 7 6 6 6 6 5 5 5 5 8 8 7 8 8 9 17
34 35 34 38 41 30 30 37 34 33 25 28 31 26 24 23 23 21 19 21 20 9 5 9 7 8 9 12 8 7 10 9 9 9 9 9 9 9 8 8 10 7 7 7 8 11 14 16 15
29 32 33 34 38 36 33 34 34 37 33 30 29 29 24 23 20 20 22 22 22 14 7 16 4 9 10 13 14 11 10 11 11 12 11 12 12 14 12 13 13 13 12 11 10 12 13 15 15
29 26 29 37 30 33 30 38 37 32 31 31 32 29 30 27 24 23 23 22 25 20 12 14 9 11 10 12 17 16 13 14 14 13 12 13 14 17 15 13 15 16 13 14 15 16 15 17 18
31 32 34 30 30 28 27 40 30 26 28 30 27 29 29 27 28 23 23 25 21 24 19 15 13 12 13 13 16 17 16 16 16 14 15 14 13 13 15 16 15 16 16 16 16 18 19 19 18
25 32 32 32 27 22 25 34 30 31 23 24 24 25 27 25 24 25 23 21 21 23 26 22 20 19 17 17 17 19 22 20 20 21 19 18 17 17 19 21 21 20 21 19 19 21 22 22 21
26 26 31 33 25 17 25 28 28 29 17 17 21 27 28 24 25 21 18 21 21 19 21 25 23 21 20 19 20 22 24 26 24 24 25 22 20 19 21 23 24 22 21 21 21 21 20 22 21
35 31 33 26 29 21 26 30 29 25 21 21 24 23 26 24 22 19 16 13 15 18 23 26 25 22 22 21 20 22 24 24 25 26 24 26 22 20 22 24 24 25 23 23 22 22 23 21 19
35 38 33 32 27 25 26 29 29 32 33 23 21 20 20 20 20 19 17 15 17 18 19 21 24 24 23 24 25 26 25 27 27 26 28 27 26 23 25 25 27 26 26 25 24 23 22 21 18
30 33 32 35 32 30 33 38 36 35 28 27 24 21 17 18 17 16 19 19 16 17 19 20 20 21 24 27 27 28 31 32 29 28 28 28 29 28 28 28 30 29 28 29 28 26 24 26 23
31 28 28 33 33 35 25 39 31 25 24 23 22 19 21 19 20 22 20 22 18 22 25 22 20 22 24 25 29 33 31 33 32 32 28 28 28 29 29 30 30 32 32 31 29 27 26 25 26
32 28 29 28 30 35 35 38 36 32 27 20 17 17 16 18 18 16 14 14 14 16 20 22 26 24 23 26 29 32 35 35 34 33 34 32 29 30 31 31 33 34 33 33 30 27 26 23 22
29 29 31 30 30 38 33 35 37 32 27 21 18 14 13 15 14 11 11 14 19 21 23 24 24 26 26 28 30 32 35 38 39 40 42 38 38 32 32 34 35 35 34 33 31 29 26 24 22
24 28 31 31 26 37 31 28 29 27 25 21 9 10 12 8 9 13 14 17 20 23 25 26 27 31 32 31 31 31 33 34 36 40 40 42 43 42 34 36 38 45 38 34 37 33 28 26 24
30 27 27 33 35 38 33 29 26 25 17 12 9 4 8 12 13 16 18 22 24 25 25 27 30 33 33 35 34 34 35 35 36 36 36 39 41 46 49 41 37 34 34 34 35 43 37 28 25
30 41 35 42 44 47 43 42 31 28 24 19 13 14 15 14 16 19 22 23 25 28 29 30 32 34 30 32 33 33 36 37 36 38 40 41 42 44 49 48 39 33 36 46 44 41 32 27 23
29 24 24 29 41 46 40 41 37 26 23 22 19 17 12 12 14 19 23 26 29 31 31 31 31 32 29 32 33 35 33 36 37 38 40 40 41 45 49 49 40 42 40 40 42 46 35 26 24
30 30 29 29 33 31 33 28 23 26 24 21 21 18 17 19 23 26 29 32 34 35 32 29 30 32 34 33 33 34 30 32 35 38 38 39 40 44 48 49 46 40 35 34 44 44 52 16 13
32 39 36 37 38 37 41 47 25 24 28 25 23 22 23 25 26 28 30 30 33 33 32 30 30 31 33 35 35 37 35 33 34 35 36 37 40 41 47 46 44 41 43 41 41 40 56 22 12
Wind_Direction
268 266 269 266 270 268 241 221 226 243 275 293 296 284 335 322 284 321 80 81 90 97 103 105 106 105 107 108 105 103 102 99 95 95 94 93 93 89 84 80 78 78 74 75 77 74 74 71 73
268 269 267 267 259 254 251 216 217 241 288 305 287 273 285 330 354 45 52 88 90 98 105 104 106 106 106 104 103 105 105 102 97 95 94 94 92 86 82 79 77 75 70 67 66 62 67 67 62
264 264 268 265 257 250 243 268 290 265 306 302 290 282 297 318 4 353 75 89 88 95 100 105 108 108 108 105 103 106 107 104 100 98 96 94 92 85 81 77 73 67 64 62 62 61 61 57 53
265 261 263 257 255 253 237 258 271 286 288 285 286 294 300 307 298 347 91 91 90 98 99 110 109 107 107 105 105 108 108 105 101 95 92 92 90 85 82 78 73 68 63 60 56 58 54 52 49
257 261 255 257 255 251 249 251 265 281 301 297 287 301 311 314 331 14 106 94 100 104 97 114 112 109 107 107 109 112 115 112 105 97 94 91 87 85 83 80 75 69 65 61 53 50 45 43 43
250 253 253 252 256 255 254 265 278 263 286 303 310 296 332 334 325 333 127 93 108 108 101 119 120 115 112 111 113 116 118 116 108 99 91 88 84 84 86 81 77 67 63 59 53 53 54 54 50
245 247 250 254 257 256 255 270 260 261 271 289 293 295 311 326 348 323 230 105 110 108 103 127 131 122 118 118 119 121 125 122 117 113 105 100 92 85 78 77 74 67 62 58 54 53 55 55 54
245 248 250 251 252 256 265 250 256 263 275 301 285 316 306 1 20 10 50 116 121 124 106 142 151 146 139 134 134 131 132 129 123 117 113 109 102 96 89 80 73 63 55 45 43 43 44 49 55
246 245 246 247 250 254 264 264 257 263 282 278 272 318 327 337 10 14 29 277 201 217 137 155 169 173 166 160 161 150 148 145 140 133 129 121 109 110 96 93 92 74 53 38 28 29 31 33 48
243 244 246 249 252 257 258 265 258 263 266 271 278 307 298 309 308 307 301 288 260 258 232 175 177 187 197 198 184 190 178 175 175 175 181 182 172 134 130 117 111 74 45 32 25 14 8 7 19
243 246 253 250 254 259 270 267 259 262 261 265 269 278 283 285 283 286 291 282 254 253 250 203 197 185 199 192 193 206 220 210 221 207 207 223 258 263 264 304 315 319 321 328 340 348 353 5 3
246 251 253 255 256 259 266 268 266 256 265 268 279 282 290 290 287 285 288 296 152 257 244 213 217 197 211 232 220 228 225 220 231 230 235 244 260 269 268 286 291 303 305 307 309 321 326 333 326
250 254 256 257 256 269 268 260 267 269 276 276 275 284 280 283 288 292 287 289 294 279 223 205 208 231 246 262 248 241 242 239 244 240 241 256 256 271 271 281 288 286 296 298 307 309 315 316 321
257 258 259 262 259 265 268 269 268 267 276 278 275 280 280 281 282 284 284 284 286 302 268 281 218 240 248 252 274 260 252 257 254 258 252 247 262 270 268 275 282 290 291 290 296 301 303 308 312
260 266 265 258 268 264 270 266 266 271 272 273 272 276 276 276 277 279 283 285 274 285 276 269 250 249 245 254 264 276 264 261 259 263 255 244 258 266 265 266 274 277 284 287 295 296 299 301 303
259 262 263 267 264 269 267 265 272 272 270 270 272 277 276 275 275 278 278 281 284 279 274 277 274 256 250 258 258 266 272 267 270 259 265 250 246 252 260 268 266 270 271 273 277 282 287 291 293
264 260 263 268 268 266 263 269 276 278 265 265 271 276 278 277 277 278 279 283 286 283 280 279 270 269 258 256 262 265 271 272 273 273 267 266 258 256 267 266 274 271 276 278 284 287 286 289 291
262 263 266 268 276 260 268 273 276 283 280 274 276 282 280 277 279 279 277 283 290 291 286 279 281 269 271 262 266 272 270 271 272 274 272 268 264 263 263 274 273 276 272 275 278 283 284 288 290
255 261 270 273 269 266 271 276 276 277 279 277 279 279 281 281 282 285 289 295 295 300 295 285 280 284 271 269 267 267 270 274 273 270 272 270 266 260 262 270 271 271 270 270 272 279 281 284 287
259 261 267 273 280 278 277 278 280 276 277 279 280 280 280 282 283 283 290 287 291 296 299 295 286 283 280 276 275 275 274 275 276 274 269 271 267 264 266 270 266 270 271 267 269 275 275 279 281
268 268 271 268 277 280 278 275 278 278 281 279 280 281 278 280 279 283 284 286 290 294 302 299 294 290 285 282 281 278 279 281 277 274 272 268 267 268 268 268 265 265 266 266 264 268 269 277 280
268 274 276 274 275 273 283 276 281 283 278 276 276 275 279 278 282 286 288 290 293 295 295 299 300 295 293 289 283 281 281 278 279 279 278 270 266 265 265 261 263 263 263 264 265 264 264 268 275
269 275 277 280 279 279 278 280 282 289 290 283 276 268 274 281 281 279 286 283 299 311 307 305 299 301 298 294 290 288 285 284 283 281 277 280 272 265 259 259 258 261 260 264 260 258 257 258 262
274 276 277 281 282 276 280 281 282 283 286 283 280 261 275 286 283 290 305 312 311 311 310 312 307 305 305 301 295 290 287 283 282 281 281 280 278 272 257 260 261 261 259 256 260 256 253 252 261
272 272 274 276 277 275 281 283 286 290 288 279 283 275 290 299 309 309 309 308 312 312 308 309 311 305 303 303 302 298 294 289 286 284 283 281 279 279 272 264 265 261 254 262 264 257 251 248 250
272 272 274 276 276 278 279 284 301 298 302 298 310 308 304 297 301 303 307 310 309 308 312 309 305 304 305 302 300 299 298 294 291 288 285 283 281 278 279 284 278 283 275 278 269 259 246 244 252
280 268 278 277 277 276 276 275 283 289 287 281 278 285 286 293 297 302 305 308 307 306 309 308 307 306 304 304 303 300 299 296 294 292 289 286 285 282 280 282 278 272 258 256 253 254 237 237 246
284 288 284 281 277 273 277 275 281 299 301 295 298 295 300 300 302 305 306 308 309 309 308 307 310 312 310 307 306 305 301 300 299 299 294 289 287 283 282 282 282 280 278 273 266 265 257 253 246
284 281 282 284 279 286 284 285 303 298 303 299 292 295 301 302 300 304 304 306 308 306 309 309 311 312 309 312 312 313 311 309 305 301 299 296 293 288 283 282 283 280 278 272 279 295 278 262 233
280 277 279 277 276 277 279 277 306 300 299 302 305 294 297 303 304 306 307 311 317 315 312 310 313 313 313 309 309 304 311 307 307 306 304 300 296 294 289 283 280 278 277 277 281 291 271 300 278